Topeka, KS

2:13 AM CDT on September 22, 2017 (GMT -0500)
Billard Municipal

Weather History for KTOP - May, 2013

Change the Weather History Date:

Tuesday, May 7, 2013

  Actual Average Record
Temperature  
Mean Temperature 60 °F 62 °F  
Max Temperature 76 °F 73 °F 94 °F (1934)
Min Temperature 44 °F 51 °F 32 °F (1989)
Degree Days  
Heating Degree Days 5 5  
Month to date heating degree days 99 38  
Since 1 July heating degree days 4862 4955  
Cooling Degree Days 0 2  
Month to date cooling degree days 0 12  
Year to date cooling degree days 16 40  
Growing Degree Days 10 (Base 50)    
Moisture  
Dew Point 49 °F    
Average Humidity 69    
Maximum Humidity 100    
Minimum Humidity 38    
Precipitation  
Precipitation 0.00 in 0.15 in 2.62 in (2007)
Month to date precipitation 0.99 1.07  
Year to date precipitation 8.56 9.27  
Snow  
Snow 0.00 in 0.00 in T in (1975)
Month to date snowfall T 0.0  
Year to date snowfall 24.2 11.3  
Since 1 July snowfall 29.6 17.8  
Snow Depth 0.00 in    
Sea Level Pressure  
Sea Level Pressure 30.05 in    
Wind  
Wind Speed 3 mph (ESE)    
Max Wind Speed 14 mph    
Max Gust Speed 18 mph    
Visibility 4 miles    
Events Fog    
T = Trace of Precipitation, MM = Missing Value Source: NWS Daily Summary

Daily Weather History Graph

Daily Weather History Graph

Search for Another Location

Airport or City:

Trip Planner

Search our weather history database for the weather conditions in past years. The results will help you decide how hot, cold, wet, or windy it might be!

Date:

Astronomy

May. 07, 2013 Rise Set
Actual Time 6:17 AM CDT 8:21 PM CDT
Civil Twilight 5:47 AM CDT 8:50 PM CDT
Nautical Twilight 5:11 AM CDT 9:26 PM CDT
Astronomical Twilight 4:32 AM CDT 10:06 PM CDT
Moon 4:50 AM CDT (5/7) 6:22 PM CDT (5/7)
Length of Visible Light 15h 03m
Length of Day
14h 04m
Waning Crescent, 5% of the Moon is Illuminated
May 7
Waning Crescent
May 9
New
May 17
First Quarter
May 24
Full
May 31
Last Quarter

Hourly Weather History & Observations

Time (CDT) Temp. Dew Point Humidity Pressure Visibility Wind Dir Wind Speed Gust Speed Precip Events Conditions
12:03 AM 52.0 °F 50.0 °F 93% 30.09 in 2.5 mi Calm Calm - N/A   Clear
12:36 AM 52.0 °F 48.9 °F 89% 30.09 in 3.0 mi Calm Calm - N/A   Clear
12:53 AM 52.0 °F 48.9 °F 89% 30.08 in 4.0 mi Calm Calm - N/A   Clear
1:05 AM 52.0 °F 48.9 °F 89% 30.09 in 1.5 mi Calm Calm - N/A   Clear
1:07 AM 51.1 °F 48.9 °F 92% 30.09 in 0.5 mi Calm Calm - N/A Fog Fog
1:32 AM 48.9 °F 46.9 °F 93% 30.08 in 0.8 mi Calm Calm - N/A   Mist
1:34 AM 48.9 °F 46.9 °F 93% 30.08 in 1.2 mi Calm Calm - N/A   Partly Cloudy
1:37 AM 48.9 °F 46.9 °F 93% 30.08 in 0.8 mi Calm Calm - N/A   Mist
1:44 AM 48.0 °F 46.0 °F 93% 30.07 in 0.2 mi Calm Calm - N/A Fog Fog
1:53 AM 48.0 °F 46.0 °F 93% 30.06 in 0.2 mi ENE 3.5 mph - N/A Fog Fog
2:08 AM 48.0 °F 46.0 °F 93% 30.07 in 1.0 mi East 3.5 mph - N/A   Mist
2:22 AM 48.0 °F 46.0 °F 93% 30.06 in 0.5 mi Calm Calm - N/A Fog Fog
2:40 AM 48.9 °F 46.9 °F 93% 30.06 in 0.2 mi Calm Calm - N/A Fog Fog
2:53 AM 48.0 °F 46.9 °F 96% 30.05 in 0.2 mi Calm Calm - N/A Fog Fog
3:53 AM 46.9 °F 46.0 °F 97% 30.06 in 0.2 mi Calm Calm - N/A Fog Fog
4:53 AM 46.9 °F 46.0 °F 97% 30.06 in 0.2 mi Calm Calm - N/A Fog Fog
5:53 AM 45.0 °F 43.0 °F 93% 30.07 in 0.2 mi Calm Calm - N/A Fog Fog
6:53 AM 46.0 °F 45.0 °F 96% 30.08 in 0.2 mi Calm Calm - N/A Fog Fog
7:53 AM 48.0 °F 46.9 °F 96% 30.10 in 0.2 mi Calm Calm - N/A Fog Fog
8:53 AM 52.0 °F 50.0 °F 93% 30.11 in 0.2 mi Calm Calm - N/A Fog Fog
9:26 AM 55.0 °F 53.1 °F 93% 30.11 in 1.0 mi Calm Calm - N/A   Mostly Cloudy
9:32 AM 55.9 °F 54.0 °F 93% 30.11 in 2.5 mi Calm Calm - N/A   Scattered Clouds
9:41 AM 57.9 °F 54.0 °F 87% 30.10 in 3.0 mi East 3.5 mph - N/A   Partly Cloudy
9:53 AM 57.9 °F 55.0 °F 90% 30.10 in 4.0 mi East 3.5 mph - N/A   Clear
10:53 AM 66.0 °F 55.0 °F 68% 30.09 in 7.0 mi Calm Calm - N/A   Clear
11:53 AM 71.1 °F 57.0 °F 61% 30.08 in 10.0 mi Variable 4.6 mph - N/A   Clear
12:53 PM 71.1 °F 53.1 °F 53% 30.06 in 10.0 mi Calm Calm - N/A   Mostly Cloudy
1:53 PM 73.9 °F 48.9 °F 41% 30.04 in 10.0 mi Calm Calm - N/A   Clear
2:53 PM 75.0 °F 48.0 °F 38% 30.02 in 10.0 mi Variable 3.5 mph - N/A   Clear
3:53 PM 75.0 °F 48.9 °F 40% 30.00 in 10.0 mi South 10.4 mph - N/A   Scattered Clouds
4:53 PM 75.9 °F 51.1 °F 42% 29.98 in 10.0 mi SE 10.4 mph - N/A   Mostly Cloudy
5:53 PM 75.0 °F 48.0 °F 38% 29.98 in 10.0 mi SSE 9.2 mph - N/A   Clear
6:53 PM 71.1 °F 51.1 °F 49% 29.97 in 10.0 mi ESE 10.4 mph - N/A   Clear
7:53 PM 70.0 °F 50.0 °F 49% 29.97 in 10.0 mi SE 8.1 mph - N/A   Scattered Clouds
8:53 PM 64.0 °F 50.0 °F 60% 29.97 in 10.0 mi SE 5.8 mph - N/A   Clear
9:53 PM 63.0 °F 50.0 °F 63% 29.98 in 10.0 mi Calm Calm - N/A   Clear
10:53 PM 60.1 °F 51.1 °F 72% 29.98 in 10.0 mi ESE 3.5 mph - N/A   Clear
11:53 PM 57.9 °F 52.0 °F 81% 29.96 in 10.0 mi NE 4.6 mph - N/A   Clear